Weather History for Milford, UT

Change the Weather History Date:

Saturday, August 3, 2013

  Actual Average Record
Temperature  
Mean Temperature 75 °F -  
Max Temperature 93 °F 91 °F 98 °F (2000)
Min Temperature 57 °F 56 °F 50 °F (1998)
Cooling Degree Days 10    
Growing Degree Days 25 (Base 50)    
Moisture  
Dew Point 29 °F    
Average Humidity 17    
Maximum Humidity 31    
Minimum Humidity 5    
Precipitation  
Precipitation 0.00 in - - ()
Sea Level Pressure  
Sea Level Pressure 29.89 in    
Wind  
Wind Speed 10 mph (SSW)    
Max Wind Speed 24 mph    
Max Gust Speed 30 mph    
Visibility 10 miles    
Events      
Averages and records for this station are not official NWS values.
T = Trace of Precipitation, MM = Missing Value Source: NWS Daily Summary

Daily Weather History Graph

Daily Weather History Graph

Search for Another Location

Airport:

Trip Planner

Search our weather history database for the weather conditions in past years. The results will help you decide how hot, cold, wet, or windy it might be!

Date:

Astronomy

Aug. 03, 2013 Rise Set
Actual Time 6:36 AM MDT 8:39 PM MDT
Civil Twilight 6:06 AM MDT 9:08 PM MDT
Nautical Twilight 5:31 AM MDT 9:44 PM MDT
Astronomical Twilight 4:52 AM MDT 10:22 PM MDT
Moon 3:49 AM MDT (8/3) 6:24 PM MDT (8/3)
Length of Visible Light 15h 01m
Length of Day
14h 03m
Waning Crescent, 9% of the Moon is Illuminated
Aug 3
Waning Crescent
Aug 6
New
Aug 14
First Quarter
Aug 20
Full
Aug 28
Last Quarter

Hourly Weather History & Observations

Time (MDT) Temp. Dew Point Humidity Pressure Visibility Wind Dir Wind Speed Gust Speed Precip Events Conditions
12:52 AM 64.9 °F 28.9 °F 26% 29.86 in 10.0 mi South 3.5 mph - N/A   Clear
1:52 AM 64.9 °F 28.0 °F 25% 29.87 in 10.0 mi South 9.2 mph - N/A   Clear
2:52 AM 60.1 °F 28.9 °F 31% 29.88 in 10.0 mi SSW 8.1 mph - N/A   Clear
3:52 AM 63.0 °F 27.0 °F 26% 29.88 in 10.0 mi WSW 9.2 mph - N/A   Clear
4:52 AM 61.0 °F 28.0 °F 29% 29.89 in 10.0 mi SSW 5.8 mph - N/A   Clear
5:52 AM 60.1 °F 28.0 °F 30% 29.89 in 10.0 mi West 9.2 mph - N/A   Clear
6:52 AM 61.0 °F 28.9 °F 30% 29.91 in 10.0 mi SW 9.2 mph - N/A   Clear
7:52 AM 64.9 °F 30.0 °F 27% 29.92 in 10.0 mi SSW 4.6 mph - N/A   Clear
8:52 AM 75.9 °F 28.0 °F 17% 29.92 in 10.0 mi SSW 10.4 mph - N/A   Clear
9:52 AM 81.0 °F 28.9 °F 15% 29.94 in 10.0 mi South 13.8 mph - N/A   Clear
10:52 AM 84.0 °F 33.1 °F 16% 29.93 in 10.0 mi South 17.3 mph - N/A   Clear
11:52 AM 87.1 °F 33.1 °F 15% 29.94 in 10.0 mi South 15.0 mph - N/A   Clear
12:52 PM 88.0 °F 32.0 °F 14% 29.91 in 10.0 mi SSW 18.4 mph 26.5 mph N/A   Clear
1:52 PM 90.0 °F 30.9 °F 12% 29.89 in 10.0 mi South 16.1 mph 25.3 mph N/A   Clear
2:52 PM 89.1 °F 30.9 °F 12% 29.89 in 10.0 mi SSW 12.7 mph 24.2 mph N/A   Clear
3:52 PM 93.0 °F 30.0 °F 11% 29.87 in 10.0 mi SW 24.2 mph 29.9 mph N/A   Clear
4:52 PM 91.9 °F 28.9 °F 11% 29.85 in 10.0 mi WSW 19.6 mph 26.5 mph N/A   Clear
5:52 PM 91.0 °F 28.9 °F 11% 29.86 in 10.0 mi SW 18.4 mph 24.2 mph N/A   Clear
6:52 PM 88.0 °F 27.0 °F 11% 29.85 in 10.0 mi SW 17.3 mph 26.5 mph N/A   Clear
7:52 PM 87.1 °F 26.1 °F 11% 29.85 in 10.0 mi SW 18.4 mph 25.3 mph N/A   Clear
8:52 PM 84.0 °F 23.0 °F 11% 29.84 in 10.0 mi WSW 13.8 mph 20.7 mph N/A   Clear
9:52 PM 73.0 °F 32.0 °F 22% 29.88 in 10.0 mi South 6.9 mph - N/A   Clear
10:52 PM 69.1 °F 34.0 °F 27% 29.90 in 10.0 mi South 8.1 mph - N/A   Clear
11:52 PM 68.0 °F 30.9 °F 25% 29.90 in 10.0 mi South 3.5 mph - N/A   Clear